• Join FlightAware (Why Join?)
  • Login
  • US Flag 
01:39AM EDT


 

Airport Tracker/Info


-or-


 

Live Flight TrackerFlight Track Log ✈ ASQ5407 ✈ 08-May-2013 ✈ KATL - KAGS

Flight Track Log - Related Links

Times and Time Zones

All times are in EDT time to prevent confusion due to time zone crossing. See the ASQ5407 flight status page for this flight to view local times or setup timezone preferences in your user account.

Time Position Orientation Groundspeed Altitude Reporting Facility
EDT Latitude Longitude Course Direction KTS MPH feet Rate Location/Type
11:09PM 33.6500 -84.4833 257° West 179 206 2,700  Level Atlanta TRACON
11:10PM 33.6333 -84.5667 257° West 264 304 5,400 2,700 Climbing Atlanta TRACON
11:11PM 33.5667 -84.5833 192° South 289 333 8,400 2,220 Climbing Atlanta TRACON
11:12PM 33.4931 -84.4647 127° Southeast 276 318 11,300 1,440 Climbing Atlanta Center
11:13PM 33.5036 -84.3428 84° East 327 376 12,300 1,080 Climbing Atlanta Center
11:14PM 33.5122 -84.2133 85° East 371 427 13,500 1,260 Climbing Atlanta Center
11:15PM 33.5208 -84.0786 86° East 396 456 14,900 720 Climbing Atlanta Center
11:16PM 33.5311 -83.9392 85° East 410 472 15,000  Climbing Atlanta Center
11:17PM 33.5394 -83.8019 86° East 410 472 15,000  Level Atlanta Center
11:18PM 33.5453 -83.6775 87° East 388 447 15,000  Level Atlanta Center
11:19PM 33.5575 -83.5578 83° East 375 432 15,000  Level Atlanta Center
11:20PM 33.5736 -83.4353 81° East 368 423 15,000 -180 Level Atlanta Center
11:21PM 33.5750 -83.3133 89° East 368 423 14,700 -360 Descending Atlanta Center
11:22PM 33.5658 -83.1986 95° East 368 423 14,300 -480 Descending Atlanta Center
11:23PM 33.5567 -83.0717 95° East 373 429 13,800 -540 Descending Atlanta Center
11:24PM 33.5453 -82.9472 96° East 378 435 13,300 -540 Descending Atlanta Center
11:25PM 33.5356 -82.8225 95° East 378 435 12,800 -540 Descending Atlanta Center
11:26PM 33.5261 -82.6981 95° East 378 435 12,300 -720 Descending Atlanta Center
11:27PM 33.5183 -82.5761 94° East 363 418 11,400 -1,320 Descending Atlanta Center
11:28PM 33.5025 -82.4717 100° East 339 390 9,700 -1,800 Descending Atlanta Center
11:29PM 33.4950 -82.3722 95° East 320 368 7,900 -1,860 Descending Atlanta Center
11:30PM 33.4872 -82.2778 96° East 296 341 6,000 -1,920 Descending Atlanta Center
11:31PM 33.4797 -82.1858 96° East 285 328 4,100 -1,800 Descending Atlanta Center
11:32PM 33.4719 -82.0939 96° East 274 315 2,400 -1,020 Descending Atlanta Center
11:33PM 33.4667 -82.0192 95° East 255 293 2,100 -600 Descending Atlanta Center
11:34PM 33.4347 -81.9828 136° Southeast 183 211 1,300 -840 Descending Atlanta Center